Theta_e
299 299 299 298 298 297 297 297 297 297 296 296 295 295 295 295 294 294 294 294 293 293 293 293 292 292 291 291 291 290 290 289 289 289 288 288 288 288 288 288 287 287 287 287 287 287 287 287 287 287 287 287 287 287 287 287 287 287 287 287 287 287
299 299 299 298 298 297 297 297 296 296 296 295 295 294 294 294 293 293 293 293 293 293 292 292 291 290 290 290 289 289 288 288 288 288 288 287 287 287 287 287 287 287 287 286 286 286 286 286 286 286 286 286 286 286 286 286 286 286 286 286 287 287
299 299 298 298 298 297 297 296 296 295 295 294 294 294 293 293 293 293 293 292 292 292 291 290 290 289 289 288 288 288 288 288 287 287 287 287 287 287 287 287 287 287 287 287 286 286 286 286 286 286 286 286 286 286 286 286 286 286 286 286 286 286
299 299 298 298 298 297 297 296 295 295 294 294 293 293 293 292 292 292 292 291 291 290 290 289 289 288 288 288 288 288 288 288 287 288 288 288 288 288 288 288 287 287 287 287 287 287 286 286 286 286 286 286 286 286 286 286 286 286 286 286 286 286
299 299 299 298 298 297 296 296 295 294 294 293 293 293 292 292 292 291 291 290 290 290 289 288 288 288 288 288 288 288 288 288 288 288 288 288 288 288 288 288 288 288 288 288 288 287 287 286 286 286 285 285 285 285 285 285 285 285 285 285 286 286
299 299 299 298 298 297 296 295 295 294 293 293 293 292 292 292 291 291 290 290 290 289 288 288 288 288 288 287 288 288 288 288 288 288 288 288 288 288 288 288 288 288 288 288 288 287 287 287 286 286 285 285 285 285 285 285 285 285 285 285 285 285
299 299 299 298 298 297 296 295 295 294 293 293 292 292 291 291 291 290 290 290 289 289 288 288 288 287 287 288 288 288 288 288 288 288 288 288 288 288 288 288 288 288 288 288 288 288 287 287 286 286 285 285 285 285 285 285 285 285 285 285 285 285
299 299 299 299 298 297 296 295 294 294 293 292 291 291 291 291 291 290 290 289 289 288 288 288 287 287 287 288 288 288 288 288 288 288 288 288 288 288 288 288 288 288 288 288 288 288 288 287 286 286 285 285 285 284 284 284 284 284 284 284 284 284
300 300 299 299 298 297 296 295 294 293 293 292 291 290 291 291 291 290 290 289 288 288 288 287 287 287 287 288 288 288 288 288 288 288 288 288 288 288 288 288 288 287 287 287 287 287 287 287 286 286 285 285 284 284 284 284 284 284 284 284 284 284
301 300 299 298 297 297 296 295 294 294 293 293 291 290 290 291 290 290 289 289 288 288 287 287 287 287 287 288 288 288 289 288 288 288 288 288 288 288 288 288 288 287 287 287 287 287 287 287 286 285 285 284 284 284 284 284 284 284 284 284 284 283
301 301 299 298 297 297 296 296 295 294 294 294 292 291 290 290 290 290 289 289 288 288 287 287 287 287 288 288 289 288 288 288 288 288 288 288 288 288 288 288 288 288 287 287 287 287 287 286 286 285 284 284 284 283 283 283 283 283 283 283 283 283
301 300 299 298 297 297 297 297 296 295 295 295 294 293 292 290 290 289 289 289 288 287 287 287 287 287 288 288 288 288 288 288 288 288 288 288 288 288 288 288 288 287 287 287 287 286 286 286 285 284 283 283 283 283 283 283 283 283 283 283 283 283
299 299 298 298 298 298 298 298 297 296 296 295 295 294 293 291 290 290 290 289 288 287 287 287 287 288 288 288 288 288 288 288 288 288 288 288 288 288 288 288 287 287 287 287 286 286 286 285 284 283 283 283 282 282 282 283 283 283 283 283 283 283
300 300 300 300 300 299 299 298 297 296 296 295 294 294 293 292 290 290 290 289 288 287 287 287 287 288 288 288 288 288 288 288 288 288 288 288 288 288 288 287 287 287 287 287 286 286 286 285 284 283 282 282 282 282 282 282 282 282 282 282 283 283
300 300 300 300 299 298 298 297 297 296 295 295 294 294 293 292 291 290 289 288 287 287 287 287 288 288 288 288 288 288 288 288 288 288 288 288 288 288 287 287 287 287 287 286 286 286 285 284 283 282 282 282 282 281 281 282 282 282 282 282 282 282
299 299 298 297 296 295 296 296 296 296 295 294 294 293 292 291 291 290 289 288 287 287 287 287 287 288 288 288 288 288 288 288 288 288 288 288 288 287 287 287 287 287 286 286 285 285 285 283 282 282 282 281 281 281 281 281 282 282 282 282 282 282
298 297 296 295 294 294 294 295 295 295 295 294 293 292 292 291 290 290 289 288 288 287 287 288 288 288 288 288 288 288 288 287 287 287 287 287 287 287 287 287 287 287 286 286 285 285 284 283 282 281 281 281 281 281 281 281 281 282 282 282 282 281
296 295 294 294 293 293 294 294 294 294 294 294 293 292 291 290 290 289 289 288 288 288 288 288 288 288 288 288 288 288 287 287 287 287 287 287 287 287 287 287 287 286 286 285 285 284 283 282 281 281 281 281 281 281 281 281 281 281 281 281 281 281
294 294 293 293 293 293 293 293 293 294 293 293 293 292 291 290 290 290 290 289 289 289 289 289 288 288 288 288 288 288 287 287 287 287 287 287 287 287 287 286 286 286 285 285 284 284 282 282 281 281 281 281 281 281 281 281 281 281 281 281 280 280
293 293 293 293 292 292 292 292 292 292 292 292 291 291 290 290 290 290 290 289 289 289 289 289 289 288 288 288 288 287 287 287 287 287 287 287 287 287 286 286 286 286 285 285 284 283 282 281 281 281 281 281 280 280 280 280 281 281 280 280 280 279
293 292 292 292 292 291 291 291 291 291 290 290 290 289 289 289 289 289 289 288 289 289 289 288 288 288 288 288 287 287 287 287 287 286 286 286 286 286 286 286 286 285 285 284 283 281 281 281 281 280 280 280 280 280 280 280 280 280 280 279 279 278
292 292 292 291 291 291 291 290 290 290 290 290 289 289 289 289 288 288 288 288 288 288 288 288 288 288 287 287 287 287 286 286 286 286 286 286 286 286 286 286 285 285 284 283 282 281 281 281 281 280 280 280 280 279 279 279 279 279 279 278 278 278
292 291 291 291 291 290 290 290 290 290 290 290 289 289 289 289 289 289 289 288 288 288 288 288 288 288 287 287 287 286 286 286 286 286 286 286 286 286 285 285 285 284 283 282 281 281 281 280 280 280 280 280 279 279 278 278 278 278 278 278 278 278
291 291 291 291 291 290 290 291 290 290 290 290 289 289 289 289 289 289 289 288 288 288 288 288 288 287 287 287 286 286 286 286 286 286 286 286 285 285 285 285 284 283 282 281 281 281 280 280 280 280 280 279 279 278 277 277 277 277 277 277 277 277
291 291 291 291 290 290 290 290 290 290 290 290 290 289 289 289 289 289 288 288 288 288 288 287 287 287 287 287 286 286 286 286 286 285 285 285 285 285 284 284 283 282 281 281 281 281 280 280 280 279 279 279 278 278 277 277 277 276 276 275 275 275
291 291 291 290 290 290 290 290 290 290 290 290 290 290 289 289 289 288 288 288 288 288 287 287 287 287 286 286 286 286 285 285 285 285 285 285 285 284 283 282 282 281 281 281 281 281 280 280 280 280 279 278 278 278 277 277 277 276 275 274 274 273
291 291 291 290 290 290 290 290 290 290 290 290 290 289 289 289 288 288 288 288 288 287 287 287 286 286 286 286 286 285 285 285 285 285 285 284 284 283 282 281 281 281 281 281 281 281 281 280 280 279 279 278 278 277 277 277 276 276 275 274 273 272
291 291 290 290 290 290 290 290 290 290 290 290 290 289 289 288 288 288 288 288 287 287 287 286 286 286 286 285 285 285 285 285 285 284 284 284 283 282 281 281 280 280 280 281 281 280 280 280 279 279 278 278 278 277 277 276 276 276 275 273 273 272
291 291 290 290 290 290 290 290 290 290 290 290 289 289 289 288 288 288 288 287 287 287 287 286 286 285 285 285 285 285 285 285 284 284 284 283 282 281 281 280 280 280 280 280 280 280 280 279 279 278 278 277 277 276 276 276 276 275 274 273 272 272
291 291 291 290 290 290 290 290 290 290 290 290 289 289 288 288 288 288 288 287 287 287 287 286 286 285 285 285 285 284 284 284 284 284 283 282 281 281 280 280 280 280 279 279 279 279 279 279 278 278 277 276 275 275 274 275 274 273 272 272 271 271
291 291 291 291 290 290 290 290 290 290 290 289 289 289 288 288 288 288 288 288 287 287 287 286 286 285 285 284 284 284 284 284 283 283 283 281 280 280 279 279 279 279 279 279 279 278 278 278 277 276 275 274 274 274 274 273 272 271 271 271 272 272
291 291 291 290 290 290 290 290 290 290 290 289 289 288 288 288 288 288 288 288 287 287 287 286 286 285 284 284 284 284 283 283 283 282 282 280 280 279 279 279 279 278 278 278 278 277 277 277 276 275 274 274 273 273 273 272 271 271 272 272 272 273
291 291 290 290 290 290 290 290 290 290 290 289 289 288 288 288 288 288 288 288 287 287 286 286 285 285 284 284 284 283 283 283 282 281 280 279 279 279 278 278 278 277 277 276 276 276 275 275 275 274 274 273 273 272 272 272 272 272 272 272 273 273
291 290 290 290 290 290 290 290 290 290 289 289 289 288 288 288 288 288 288 287 286 286 285 285 284 284 284 283 283 282 282 282 281 280 279 278 278 278 278 277 277 276 276 275 275 275 274 274 274 273 273 273 272 271 271 273 273 272 272 272 272 272
290 290 290 290 290 290 290 290 290 289 289 289 289 288 288 288 288 287 287 286 286 285 285 284 283 283 283 282 282 281 281 280 280 279 278 277 277 277 277 276 276 276 275 275 275 274 274 274 273 273 273 272 271 271 272 273 272 272 272 272 271 272
290 290 290 290 290 290 290 290 289 289 289 289 288 288 287 287 287 286 286 285 285 284 284 283 283 282 282 281 281 280 279 279 278 278 278 278 277 276 276 275 275 275 275 275 274 274 274 273 273 272 272 271 271 272 272 272 272 271 271 271 271 272
290 290 290 290 290 290 290 289 289 289 288 288 287 287 287 286 286 285 285 284 284 283 283 282 282 281 281 280 280 279 278 278 278 277 277 277 277 276 276 275 274 274 274 274 274 274 273 273 272 272 271 271 271 272 272 272 272 272 271 271 272 272
290 290 290 290 290 289 289 289 288 288 287 287 286 286 286 285 285 284 284 283 282 282 282 281 281 280 280 279 279 278 277 277 277 277 277 276 276 276 275 274 273 273 273 273 273 273 273 273 272 271 271 271 271 271 271 271 272 272 272 272 272 271
Wind_Speed
28 26 24 22 20 18 17 16 15 14 13 13 12 11 10 9 8 8 7 7 7 6 6 6 6 6 6 6 6 6 6 6 5 5 5 6 6 7 8 9 10 11 12 13 14 15 16 16 17 17 18 18 19 20 20 21 21 22 23 23 25 26
29 26 24 22 21 20 18 17 16 16 15 14 13 13 12 10 10 10 9 9 9 9 8 9 9 8 8 8 7 6 5 5 4 4 4 4 5 7 8 9 10 11 12 13 14 15 16 17 17 18 19 19 20 20 21 22 22 23 23 24 25 26
29 27 25 23 22 21 20 19 18 18 17 16 15 14 13 12 12 11 11 11 11 11 11 11 10 9 8 7 6 5 4 3 3 4 5 6 7 8 9 10 11 12 13 14 15 16 17 18 18 19 20 20 21 22 23 23 24 24 25 25 26 27
31 28 26 25 24 24 23 22 21 20 19 17 16 15 14 14 14 13 13 14 14 13 13 12 11 10 8 7 5 5 4 4 4 5 6 8 9 10 11 12 13 14 15 16 17 18 19 19 20 21 21 22 23 23 24 25 25 26 27 27 28 29
31 29 28 27 27 26 25 24 23 21 20 19 17 16 16 16 16 16 16 16 15 15 14 13 12 10 8 7 5 4 4 4 5 6 8 10 11 12 14 15 16 17 18 18 19 20 21 22 22 23 23 24 25 25 26 26 27 28 29 29 30 31
32 31 31 30 29 27 26 25 24 23 22 20 19 18 18 17 17 18 17 17 16 16 16 15 13 10 7 6 4 4 4 5 6 8 10 12 13 15 17 18 19 20 21 21 22 23 24 24 25 26 26 27 28 29 29 29 30 30 31 32 33 34
35 34 32 31 30 29 28 27 25 24 23 22 21 20 19 19 19 19 19 18 18 18 17 15 12 9 7 6 5 6 6 7 9 10 12 14 16 18 19 21 22 23 24 24 25 26 27 27 28 28 29 29 30 31 32 32 33 34 34 35 36 37
36 34 33 33 32 31 30 29 27 25 24 23 22 21 20 20 20 20 20 20 20 19 16 13 11 9 8 8 8 8 8 9 11 12 14 16 18 20 22 23 24 25 25 26 27 27 28 28 29 29 30 31 31 32 33 34 35 36 36 37 38 39
36 36 36 35 34 33 31 30 28 26 24 24 23 23 22 21 21 22 22 22 20 18 15 13 11 11 10 10 10 9 10 10 12 14 15 17 19 21 23 24 26 27 27 28 28 28 29 29 29 30 31 32 33 34 35 35 36 37 38 38 39 40
38 38 38 37 35 34 32 30 29 26 24 23 24 24 24 23 23 23 22 22 20 17 15 14 13 13 13 12 11 11 11 11 13 15 17 19 20 22 24 26 28 29 30 30 30 30 30 30 30 31 32 33 34 35 36 37 37 38 39 39 40 40
40 40 39 37 34 32 31 31 30 28 25 24 24 25 24 24 24 23 22 21 20 18 16 15 16 16 15 14 13 12 12 13 14 16 17 19 21 23 25 27 29 31 32 33 32 31 31 31 31 32 33 35 36 36 37 37 38 39 40 40 40 40
41 40 37 34 31 30 30 31 31 29 28 26 26 25 24 24 24 23 22 21 20 18 17 18 18 18 17 16 15 15 15 15 16 17 19 20 22 24 26 28 30 32 34 34 34 33 33 32 33 33 34 35 36 37 37 38 38 39 40 41 41 41
35 35 33 31 30 30 30 31 30 29 29 28 26 24 23 24 25 23 22 21 20 19 19 20 21 21 20 19 18 17 17 18 19 19 21 22 24 25 27 28 31 33 35 36 36 35 34 33 33 34 35 36 36 36 37 38 39 39 40 40 40 41
23 24 25 24 24 24 24 26 27 28 28 27 24 22 22 24 24 22 21 20 20 21 21 22 23 23 22 21 20 20 20 21 21 21 23 24 25 26 28 29 32 34 36 36 36 35 34 34 34 34 35 35 35 35 36 37 38 39 39 39 40 40
16 17 16 15 15 14 14 17 20 22 23 22 21 20 21 22 22 21 21 21 21 22 23 25 26 25 25 24 24 24 23 23 23 24 25 25 26 28 29 31 33 35 36 36 36 35 34 33 34 34 35 35 35 35 35 36 37 37 38 38 39 40
14 14 12 11 12 12 12 14 15 16 17 18 19 20 20 20 20 21 21 22 23 24 25 27 28 28 28 27 27 27 26 26 26 26 26 27 28 29 30 32 34 35 36 36 36 35 34 33 34 34 34 34 34 34 35 36 37 37 37 38 39 40
13 12 11 11 12 12 13 14 13 14 15 17 18 18 18 19 19 20 21 23 25 27 28 29 30 30 31 31 30 30 29 28 27 27 27 28 29 30 31 33 35 36 36 37 36 35 34 33 33 33 34 34 34 34 35 36 36 37 38 39 39 40
12 12 12 12 12 13 12 12 13 14 14 15 16 17 17 18 19 21 23 25 27 28 30 31 32 33 33 33 32 32 30 29 28 28 28 29 29 31 32 34 36 36 37 37 36 34 34 34 33 33 33 33 33 34 35 36 37 38 39 39 40 41
13 13 14 13 13 12 12 13 14 15 15 15 16 16 17 18 20 22 23 25 27 28 30 32 32 33 33 33 32 32 31 29 28 28 29 30 31 32 33 35 36 37 37 37 35 34 34 34 33 32 33 33 33 34 35 36 37 38 39 39 40 41
14 14 13 13 12 12 13 15 15 14 13 14 14 15 17 19 21 22 22 23 23 24 26 27 28 29 29 30 30 30 30 29 28 29 29 30 32 33 34 35 36 37 37 35 34 34 34 34 33 32 32 32 32 33 34 35 37 37 38 39 40 40
14 13 13 12 11 12 15 15 14 13 12 12 13 15 18 19 20 20 20 20 21 22 23 23 24 25 26 28 29 29 29 29 29 29 30 31 33 34 35 36 36 37 36 34 33 34 34 34 33 32 32 32 32 32 33 35 36 37 38 38 39 39
15 14 13 11 11 13 15 16 15 14 13 13 13 15 15 15 15 15 16 17 19 21 23 23 24 25 26 27 28 28 29 29 29 30 31 32 33 34 35 35 36 36 35 33 33 34 33 33 33 32 32 32 31 31 32 33 34 35 36 37 38 39
15 15 13 11 11 14 17 17 16 14 13 13 14 15 14 14 14 15 15 16 17 19 22 23 25 26 27 27 28 29 29 29 30 31 31 33 34 34 35 35 36 35 33 33 34 34 33 33 33 32 32 32 31 31 30 31 33 33 35 37 38 38
16 16 15 13 15 17 19 19 17 15 14 15 16 16 16 16 17 17 17 18 18 20 22 24 25 27 27 28 29 29 29 30 30 31 32 33 34 34 35 35 34 32 32 33 33 33 33 33 33 33 32 32 31 30 29 30 31 31 32 35 37 37
19 18 17 16 18 20 21 20 19 18 18 18 18 18 18 19 19 19 19 19 20 22 24 26 27 27 28 29 29 30 30 30 31 32 33 33 33 34 34 33 32 32 32 33 33 33 33 33 33 33 33 31 31 30 29 29 29 29 29 31 34 36
21 19 18 19 20 22 23 23 23 22 21 21 20 20 21 20 20 19 19 20 22 24 26 27 28 28 29 29 30 30 30 30 31 32 32 32 32 33 33 31 31 32 32 32 33 33 33 34 34 34 33 32 31 30 29 28 28 28 28 29 32 33
21 20 20 21 22 24 25 26 26 26 25 23 23 23 22 22 21 19 19 21 23 26 27 28 28 29 29 30 30 30 30 31 31 32 32 32 32 31 31 30 30 31 31 32 33 34 34 35 35 35 35 33 31 30 29 28 28 29 29 29 30 31
22 22 23 24 25 25 26 27 28 28 27 26 26 25 24 22 21 19 20 22 24 26 28 29 29 29 30 30 30 30 30 31 32 32 31 31 30 30 30 30 30 30 31 32 33 34 35 35 35 36 35 32 31 31 30 30 30 30 30 30 31 32
24 25 25 26 26 27 27 28 29 30 30 29 29 27 25 23 20 19 20 21 23 26 27 29 29 30 30 30 30 30 31 32 32 32 31 30 29 29 29 29 29 30 30 32 33 34 35 36 36 36 34 32 32 32 31 31 32 33 33 33 33 33
28 27 27 27 27 28 29 30 30 31 32 32 30 28 26 23 20 19 20 20 22 25 27 29 30 30 30 31 31 31 32 32 32 32 31 29 29 29 29 29 29 29 29 31 33 34 35 35 35 34 33 31 30 30 30 31 32 32 31 31 31 32
30 30 30 29 28 28 29 30 30 32 32 32 31 29 27 24 21 20 21 21 23 25 27 29 31 31 31 31 31 32 32 32 32 32 31 29 28 28 28 28 28 28 29 31 32 33 35 36 34 32 30 29 27 27 27 28 28 28 29 30 31 33
29 30 31 31 29 28 28 28 29 30 31 31 31 31 29 26 23 22 22 23 24 25 28 30 31 32 32 32 32 32 32 32 31 31 30 28 27 27 27 28 28 28 29 31 32 33 33 34 33 30 28 27 26 25 24 25 27 28 29 30 31 32
28 30 31 31 29 28 27 27 28 29 30 30 31 32 30 28 26 25 25 25 25 26 28 30 31 32 32 32 32 33 32 31 30 29 28 28 28 27 27 27 27 28 27 28 30 31 31 30 30 28 27 26 24 23 23 26 27 27 27 28 29 29
29 30 30 29 28 27 27 28 29 30 29 30 31 32 32 29 28 27 26 25 26 27 29 30 31 31 32 32 32 32 32 31 29 27 25 25 27 27 27 26 26 26 27 27 28 28 28 28 27 26 25 24 21 21 24 26 25 24 24 25 26 26
27 27 26 26 27 28 29 30 30 29 29 31 33 34 33 31 29 27 26 26 27 28 29 30 30 30 30 31 31 31 30 30 29 28 26 24 24 25 26 26 25 25 26 27 27 26 26 26 25 24 23 20 19 21 24 23 21 21 22 23 23 22
26 26 27 28 28 29 30 30 29 29 30 32 34 34 33 30 28 27 26 26 27 28 29 29 29 29 29 29 30 30 29 29 29 29 28 27 25 23 23 24 24 24 25 25 24 23 23 24 24 22 19 18 19 22 22 20 18 18 20 20 20 20
28 28 28 28 28 29 29 29 29 30 31 33 34 34 32 29 28 27 27 26 27 27 27 28 28 28 28 29 29 29 29 29 29 28 28 28 28 27 25 23 21 21 22 23 23 22 22 22 22 19 17 17 19 20 20 18 17 17 18 18 18 19
28 28 28 28 28 28 28 28 28 29 31 33 33 32 30 28 27 26 26 26 26 26 27 27 28 28 28 28 28 28 28 29 28 28 28 28 28 28 27 25 21 18 18 20 20 21 21 21 20 17 16 17 19 18 17 18 18 18 18 18 18 18
Wind_Direction
182 179 178 179 181 185 189 192 196 200 203 205 208 211 214 217 218 218 223 225 230 240 244 247 248 246 248 249 251 253 255 262 269 274 279 285 291 294 296 297 298 298 299 299 300 300 301 301 300 300 301 301 301 302 303 304 305 306 307 309 310 311
185 184 184 185 187 191 196 199 203 207 210 212 213 216 218 220 224 225 230 235 239 245 247 245 243 241 241 242 242 245 245 251 259 269 284 295 300 302 303 303 303 302 302 302 301 300 300 299 299 298 298 299 299 300 301 302 303 304 305 306 308 309
188 188 189 191 195 199 203 205 209 211 214 216 217 219 222 225 230 232 235 240 242 244 244 243 241 238 238 237 236 240 247 261 285 303 312 317 317 316 314 313 312 310 309 309 307 306 304 303 302 301 301 301 302 302 303 304 305 306 307 308 308 308
193 193 193 197 201 205 208 209 213 215 217 219 219 222 225 229 234 236 238 241 241 243 243 241 239 236 235 237 240 253 272 294 315 325 328 329 327 324 322 320 319 317 316 315 313 312 310 308 307 306 306 306 305 305 306 307 307 308 309 310 310 310
197 197 199 203 206 208 212 214 216 217 219 221 222 225 228 231 235 237 238 240 241 243 242 239 237 236 236 241 250 269 292 312 325 330 330 331 330 329 329 327 324 322 320 319 317 315 313 312 311 310 311 311 310 310 310 310 310 311 311 312 312 312
202 204 206 209 211 213 215 217 219 220 221 223 225 227 229 232 235 237 239 241 242 242 240 238 237 235 235 241 254 275 295 309 319 325 327 331 333 334 334 331 329 327 325 323 321 319 317 316 315 315 315 315 314 314 313 313 313 314 314 314 314 314
207 210 212 214 216 218 219 220 222 223 224 226 226 228 230 232 236 239 241 242 242 240 238 236 234 231 233 244 260 280 295 306 314 320 326 331 334 336 336 334 331 329 326 324 322 320 319 318 317 316 316 315 315 315 314 314 314 314 315 316 316 316
212 215 217 219 222 223 224 224 225 226 228 228 228 229 231 233 236 239 241 242 241 239 237 234 233 234 244 258 271 284 295 305 312 319 325 330 334 336 336 335 333 330 326 323 321 319 318 317 317 316 315 315 314 314 314 313 314 314 315 316 316 316
216 219 222 225 227 229 229 230 230 230 232 231 229 231 233 234 237 239 242 242 240 237 236 236 240 247 256 264 273 283 293 304 312 319 324 327 330 332 334 335 333 331 327 323 320 319 317 317 316 316 315 315 314 314 313 313 313 313 314 315 315 315
220 223 227 230 232 234 235 236 236 235 237 237 235 235 236 237 238 239 241 241 240 238 239 241 247 252 257 263 270 279 290 301 310 316 320 321 323 325 327 329 331 330 328 325 322 319 318 317 317 317 316 315 315 314 313 313 313 313 313 314 314 314
224 228 231 234 236 239 241 241 240 237 239 241 239 239 240 241 240 240 241 242 242 241 242 246 251 254 257 261 268 276 286 296 304 309 311 312 314 316 319 322 326 328 328 326 323 321 319 318 318 318 316 315 315 314 313 313 312 313 313 313 313 313
229 233 237 240 243 247 249 249 246 243 243 244 241 240 241 241 241 241 242 244 245 244 245 249 253 256 258 261 266 274 283 291 296 299 300 303 306 309 313 317 321 325 326 326 324 321 319 319 318 318 317 316 316 315 314 313 313 313 313 313 313 313
237 242 247 250 253 255 255 254 251 247 244 243 242 243 245 244 243 243 245 248 247 245 247 252 256 258 260 263 268 274 280 284 288 291 293 297 302 305 309 313 318 322 324 324 323 321 319 318 318 318 317 316 316 314 314 313 313 314 314 313 314 314
249 251 254 255 255 254 253 251 249 245 242 241 243 247 248 246 245 246 248 249 247 246 248 253 258 261 263 266 270 273 276 279 282 286 290 295 299 302 306 311 316 320 322 322 321 320 318 317 317 317 316 315 314 314 313 314 314 314 315 314 314 315
256 255 252 248 245 242 242 244 245 244 243 244 247 250 250 248 247 248 249 248 246 247 249 253 258 262 265 267 270 271 273 276 278 283 289 293 297 300 305 310 315 319 320 320 319 317 316 316 317 316 315 314 314 314 314 314 315 315 315 315 315 316
247 243 237 235 236 232 232 235 237 237 237 240 244 247 248 249 249 250 250 249 248 249 251 254 258 262 265 267 268 269 271 273 277 282 287 291 295 299 305 310 314 317 318 318 317 316 315 316 316 315 314 313 313 314 314 315 315 315 315 315 315 315
232 232 234 238 240 237 237 239 237 232 228 230 237 241 245 248 250 251 251 251 251 252 254 257 259 262 265 266 267 268 269 272 276 280 285 289 294 299 305 310 313 315 316 316 316 314 314 315 315 314 313 313 314 314 315 315 315 315 315 315 316 316
231 238 242 245 245 245 247 249 245 240 236 236 239 240 242 244 247 250 252 254 256 257 258 260 262 264 265 266 266 266 267 270 274 279 284 289 294 300 306 310 312 314 314 315 314 312 312 313 313 313 312 313 314 315 315 315 315 315 314 315 316 316
237 240 242 242 243 245 245 245 245 245 244 243 242 240 239 243 248 253 257 260 262 263 264 264 265 265 265 265 264 264 266 269 273 278 283 289 295 301 306 309 311 312 312 313 312 310 311 312 312 312 312 313 315 315 314 314 314 314 314 315 316 316
239 238 237 234 232 234 237 238 239 237 237 239 241 244 248 253 258 262 266 269 270 269 269 268 267 266 265 264 263 263 265 269 273 278 284 291 297 302 306 308 309 310 311 310 309 309 310 310 311 311 311 313 314 314 313 313 313 313 314 315 316 316
235 228 224 222 224 230 232 230 226 226 236 247 250 254 256 258 263 267 270 273 275 274 274 273 270 268 265 264 263 264 267 270 275 280 287 294 299 303 306 307 308 309 308 307 307 308 308 308 309 310 311 312 312 312 313 313 313 314 315 315 314 314
226 220 220 223 230 230 224 221 224 235 252 262 262 262 263 264 267 268 270 273 275 275 275 274 273 270 267 265 265 266 268 272 277 284 291 297 301 303 304 306 307 306 305 305 306 307 307 307 308 309 309 310 311 313 314 313 312 313 313 312 312 313
225 223 228 233 235 231 225 227 237 251 263 266 265 268 271 272 272 270 271 275 277 277 276 274 272 270 268 267 267 268 270 275 281 288 294 298 301 302 303 305 304 303 303 305 306 307 307 307 307 308 309 310 311 313 314 313 312 313 313 312 313 315
226 226 232 238 239 237 236 238 246 256 263 266 268 272 272 271 270 270 272 274 276 277 276 272 270 269 268 268 269 270 273 279 285 291 295 298 300 301 302 302 301 301 302 305 306 306 306 306 306 307 308 310 312 313 313 313 313 315 315 313 314 315
228 230 238 246 247 245 243 244 249 255 261 265 268 269 268 267 268 270 272 273 275 276 274 271 269 268 268 268 270 272 277 282 287 292 295 298 299 300 300 299 299 300 303 305 306 306 306 306 306 307 308 311 312 312 313 314 315 316 314 311 312 314
232 237 247 252 251 249 247 247 251 255 259 264 266 266 265 265 266 268 271 273 274 273 272 270 268 267 267 269 271 275 279 283 288 292 294 295 297 297 297 297 299 302 304 306 306 306 306 306 307 307 309 311 313 313 314 315 315 314 313 312 312 312
236 245 253 255 252 250 250 249 252 255 259 263 264 263 262 263 264 269 272 273 273 272 270 268 267 267 268 270 273 276 279 284 288 291 292 294 295 295 294 296 300 303 305 306 307 306 306 307 307 308 309 312 313 313 314 315 315 314 315 315 312 310
240 249 254 255 252 250 250 250 252 255 259 261 261 259 258 259 263 270 274 274 274 272 270 269 268 268 269 270 273 276 280 285 288 290 291 292 293 292 293 296 300 302 304 305 305 305 306 306 307 307 309 311 313 313 315 318 318 317 317 316 314 315
243 251 256 256 254 252 251 251 252 254 257 258 257 255 254 257 263 271 275 276 276 274 273 271 269 269 270 271 274 277 282 286 288 289 290 291 291 291 293 296 299 301 303 304 304 305 305 305 306 307 309 313 316 319 321 321 320 319 319 319 320 320
245 253 258 259 258 256 255 254 255 255 256 256 255 253 253 257 264 271 274 276 277 277 275 274 271 270 271 272 275 280 283 286 287 288 289 289 289 290 292 295 298 301 302 302 303 303 303 303 304 309 314 319 322 322 321 320 319 320 319 317 314 310
249 254 259 261 261 260 258 258 258 257 257 256 254 251 251 256 263 269 271 274 276 276 276 275 273 272 272 274 277 281 283 285 285 286 287 287 287 288 291 294 298 300 299 299 300 301 303 305 309 314 318 320 319 317 316 316 315 313 311 308 307 306
251 253 256 258 259 258 257 258 259 258 255 254 251 249 250 255 261 266 268 272 274 275 275 273 272 272 273 276 279 281 282 282 283 284 284 284 285 287 290 294 298 299 299 300 302 304 306 307 310 312 313 312 312 312 310 307 305 305 307 308 310 313
255 254 254 254 254 255 257 260 260 257 253 251 249 248 249 254 260 264 267 270 272 272 272 272 272 273 275 277 279 280 280 281 280 281 282 284 286 289 292 295 298 299 299 299 299 300 301 302 304 306 306 308 310 308 304 303 305 309 312 315 317 321
259 257 256 253 254 258 261 263 259 254 250 249 248 247 248 252 258 262 266 268 269 270 270 271 272 274 276 278 279 279 279 279 279 278 278 280 284 289 292 293 295 295 294 294 294 295 297 299 300 302 303 306 306 302 300 305 310 314 316 320 323 327
261 259 258 257 259 262 263 262 256 250 249 249 248 246 247 251 256 260 263 265 267 269 270 271 273 275 276 276 277 277 277 278 278 278 277 277 280 284 288 290 291 291 290 290 291 292 295 296 297 299 302 303 299 297 300 307 313 317 320 324 327 329
263 262 262 262 263 263 262 258 252 248 249 250 247 245 247 252 256 259 261 263 265 267 270 272 274 274 274 274 275 275 275 275 276 278 281 283 284 285 286 288 290 289 288 288 287 288 291 292 293 296 299 295 292 296 302 308 315 320 321 321 323 329
264 265 266 266 265 264 261 256 251 250 250 249 246 246 248 253 257 259 261 263 265 267 270 272 272 272 273 273 273 273 274 275 277 280 284 287 290 290 289 289 290 288 287 287 288 289 289 289 291 294 294 290 292 298 303 308 314 318 316 315 322 331
267 268 268 268 267 265 262 258 253 251 250 248 246 247 250 254 258 260 262 264 266 268 270 270 270 270 271 272 272 273 275 276 279 282 284 286 289 290 292 293 292 286 282 282 285 286 287 288 290 292 290 289 292 298 303 309 315 317 316 319 326 331